Location: Baumgarten
(49.0970°N, 12.7493°E)
Time: 07:24:36
(UTC+00:00)

Cosmos 1346 Rocket - Pass Details

Date: 05 July 2020
Orbit: 533 x 546 km, 81.2° (Epoch: 04 August)

Event Time Altitude Azimuth Distance (km) Brightness Sun altitude
Exits shadow 22:28:21 21° 111° (ESE) 1,227 4.3 -17.5°
Maximum altitude 22:29:14 23° 91° (E) 1,165 4.3 -17.6°
Drops below altitude 10° 22:32:23 10° 38° (NE) 1,796 6.0 -17.6°
Sets 22:34:51 0° 24° (NNE) 2,693 7.3 -17.7°
